Location: Azul
(36.7830°S, 59.8500°W)
Time: 20:53:02
(UTC-03:00)

RS-44 - Pass Details

Date: 21 September 2024
Orbit: 1174 x 1511 km, 82.5° (Epoch: 11 October)

Event Time Altitude Azimuth Distance (km) Brightness Sun altitude
Rises 01:19:15 0° 172° (S) 4,446 ? -53.2°
Reaches altitude 10° 01:23:15 10° 154° (SSE) 3,525 ? -53.0°
Enters shadow 01:27:28 18° 124° (SE) 2,986 ? -52.8°
